Cosmos 1689 Rocket - Orbit

View from above orbital plane
View from above orbital plane
View from above satellite
View from above satellite

Ground track
Ground track

The orbit data is extracted from the following two-line orbital elements,

1 16111U 85090B   13140.50340270  .00006115  00000-0  22917-3 0  1564
2 16111 097.4248 218.2893 0028462 349.6774 010.3877 15.27253469515125
Epoch (UTC): 20 May 2013 12:04:53
Eccentricity: 0.0028462
inclination: 97.4248°
perigee height: 464 km
apogee height: 503 km
right ascension of ascending node: 218.2893°
argument of perigee: 349.6774°
revolutions per day: 15.27253469
mean anomaly at epoch: 10.3877°
orbit number at epoch: 51512

The dashed part of the orbit path shows where the satellite is in the earth's shadow,  

Developed and maintained by Chris Peat, Heavens-Above GmbH. Please read the updated FAQ before sending e-mail. Imprint. DLR